Del Bajio, Mexico

9:03 AM CDT on May 25, 2017 (GMT -0500)
De Guanajuato International

Weather History for MMLO - October, 2014

Change the Weather History Date:

Tuesday, October 7, 2014

  Actual Average Record
Temperature  
Mean Temperature 68 °F -  
Max Temperature 80 °F 79 °F 89 °F (2011)
Min Temperature 55 °F 55 °F 44 °F (2010)
Cooling Degree Days 2    
Growing Degree Days 18 (Base 50)    
Moisture  
Dew Point 52 °F    
Average Humidity 64    
Maximum Humidity 94    
Minimum Humidity 24    
Precipitation  
Precipitation 0.00 in - - ()
Sea Level Pressure  
Sea Level Pressure 30.14 in    
Wind  
Wind Speed 3 mph ()    
Max Wind Speed 12 mph    
Max Gust Speed -    
Visibility 9.0 miles    
Events      
Averages and records for this station are not official NWS values.
T = Trace of Precipitation, MM = Missing Value Source: Averaged Metar Reports

Daily Weather History Graph

Daily Weather History Graph

Search for Another Location

Airport or City:

Trip Planner

Search our weather history database for the weather conditions in past years. The results will help you decide how hot, cold, wet, or windy it might be!

Date:

Astronomy

Oct. 07, 2014 Rise Set
Actual Time 7:38 AM CDT 7:28 PM CDT
Civil Twilight 7:16 AM CDT 7:50 PM CDT
Nautical Twilight 6:50 AM CDT 8:16 PM CDT
Astronomical Twilight 6:25 AM CDT 8:41 PM CDT
Moon 7:02 PM CDT (10/7) 6:44 AM CDT (10/7)
Length of Visible Light 12h 33m
Length of Day
11h 49m
Waxing Gibbous, 99% of the Moon is Illuminated
Oct 7
Waxing Gibbous
Oct 8
Full
Oct 15
Last Quarter
Oct 23
New
Oct 30
First Quarter

Hourly Weather History & Observations

Time (CDT) Temp. Dew Point Humidity Pressure Visibility Wind Dir Wind Speed Gust Speed Precip Events Conditions
12:42 AM 60.8 °F 59.0 °F 94% 29.93 in 8.0 mi East 2.3 mph - N/A   Overcast
1:46 AM 59.0 °F 57.2 °F 94% 30.29 in 8.0 mi NNE 4.6 mph - N/A   Overcast
2:44 AM 59.0 °F 57.2 °F 94% 30.28 in 8.0 mi Calm Calm - N/A   Overcast
3:44 AM 57.2 °F 55.4 °F 94% 29.89 in 8.0 mi Calm Calm - N/A   Mostly Cloudy
4:44 AM 59.0 °F 57.2 °F 94% 30.27 in 8.0 mi SSE 3.5 mph - N/A   Mostly Cloudy
5:43 AM 57.2 °F 55.4 °F 94% 30.27 in 8.0 mi NNW 3.5 mph - N/A   Mostly Cloudy
6:46 AM 57.2 °F 55.4 °F 94% 29.91 in 8.0 mi NNW 4.6 mph - N/A   Mostly Cloudy
7:41 AM 55.4 °F 53.6 °F 94% 30.29 in 10.0 mi NW 3.5 mph - N/A   Scattered Clouds
8:45 AM 59.0 °F 55.4 °F 88% 30.31 in 10.0 mi NW 2.3 mph - N/A   Clear
9:48 AM 68.0 °F 55.4 °F 64% 29.99 in 10.0 mi Calm Calm - N/A   Clear
10:46 AM 69.8 °F 51.8 °F 53% 30.34 in 10.0 mi Calm Calm - N/A   Clear
11:41 AM 73.4 °F 50.0 °F 44% 30.33 in 10.0 mi East 9.2 mph - N/A   Clear
12:50 PM 77.0 °F 48.2 °F 36% 29.89 in 10.0 mi East 6.9 mph - N/A   Partly Cloudy
1:44 PM 77.0 °F 50.0 °F 39% 30.28 in 10.0 mi SE 9.2 mph - N/A   Partly Cloudy
2:44 PM 77.0 °F 48.2 °F 36% 30.24 in 10.0 mi East 3.5 mph - N/A   Scattered Clouds
3:53 PM 80.6 °F 41.0 °F 24% 29.80 in 10.0 mi NW 4.6 mph - N/A   Scattered Clouds
4:42 PM 77.0 °F 44.6 °F 32% 30.20 in 10.0 mi NNW 8.1 mph - N/A   Scattered Clouds
5:40 PM 78.8 °F 44.6 °F 30% 30.19 in 10.0 mi NNE 5.8 mph - N/A   Scattered Clouds
6:50 PM 75.2 °F 48.2 °F 38% 29.82 in 10.0 mi NE 4.6 mph - N/A   Scattered Clouds
7:42 PM 69.8 °F 46.4 °F 43% 30.21 in 8.0 mi NNE 6.9 mph - N/A   Scattered Clouds
8:49 PM 68.0 °F 46.4 °F 46% 30.25 in 8.0 mi North 9.2 mph - N/A   Scattered Clouds
9:50 PM 66.2 °F 62.6 °F 88% 29.88 in 8.0 mi Calm Calm - N/A   Scattered Clouds
10:50 PM 66.2 °F 60.8 °F 83% 30.29 in 8.0 mi North 9.2 mph - N/A   Partly Cloudy
11:44 PM 66.2 °F 42.8 °F 43% 30.29 in 8.0 mi North 11.5 mph - N/A   Clear